[[{"header":{"parameterUnit":"m.s-1","parameterCategory":1,"la1":30.2991,"la2":30.254,"lo1":-89.0895,"lo2":-89.0444,"dy":0.0017,"dx":0.0017,"nx":28,"ny":28,"refTime":"2024-07-07T21:00:00:Z","depth":0,"parameterNumber":2,"parameterNumberName":"U-component_of_WINDS"},"data":[0,0,0,0,0,0,0,0,0,0,0,0,0,0,0,0,0,0,0,0,0,0,0,0,0,0,0,0,0,0,0,0,0,0,0,0,0,0,0,0,0,0,0,0,0,0,0,0,0,0,0,0,0,0,0,0,0,0,4.2923,4.2924,0,4.2965,4.2965,4.2966,4.2909,4.2907,4.2905,4.2903,4.2944,4.2947,4.2949,0,0,0,0,0,0,0,0,0,0,0,0,0,4.2792,4.2794,4.2923,4.2924,4.2924,4.2965,4.2966,4.2966,4.291,4.2907,4.2905,4.2902,4.2943,4.2946,4.295,0,0,0,0,0,0,0,0,0,0,0,0,0,4.2843,4.2795,4.2923,4.2901,4.29,4.2965,4.2966,4.2966,4.291,4.2907,4.2904,4.2901,4.2942,4.2946,4.295,4.3038,0,0,4.2964,4.2966,0,0,0,0,0,0,0,0,4.284,4.2848,4.2904,4.2903,4.2901,4.2929,4.2934,4.299,4.2911,4.2906,4.2903,4.29,4.2941,4.2945,4.296,4.304,4.3042,4.2964,4.2967,4.2969,4.297,0,0,0,0,0,0,0,4.2836,4.2845,4.294,4.2905,4.2903,4.2888,4.2892,4.2944,4.294,4.2906,4.2902,4.2908,4.294,4.2956,4.296,4.3043,4.2964,4.2968,4.2971,4.2972,4.3196,4.3199,0,0,0,0,0,0,4.2836,4.2843,4.2938,4.2941,4.2863,4.2893,4.2897,4.2923,4.2939,4.2939,4.2911,4.2905,4.295,4.2955,4.2961,4.3064,4.2969,4.2973,4.2975,4.3193,4.3197,4.32,0,0,0,0,0,0,4.2833,4.2845,4.2937,4.2891,4.2901,4.2899,4.2928,4.2925,4.2941,4.2943,4.2941,4.2928,4.2947,4.2955,4.3019,4.3065,4.2975,4.2979,4.3189,4.3194,4.3198,4.3272,0,0,0,0,0,0,4.283,4.2844,4.2879,4.2892,4.2904,4.2995,4.2931,4.2928,4.2949,4.2943,4.2958,4.2958,4.2946,4.3013,4.3024,4.307,4.2982,4.3185,4.3191,4.3197,4.3266,4.3279,4.329,0,0,0,0,0,4.2825,4.2897,4.2881,4.2892,4.2947,4.2998,4.3005,4.2989,4.2953,4.2987,4.2988,4.2958,4.3059,4.302,4.3032,4.308,4.3182,4.3189,4.3196,4.326,4.3276,4.329,0,0,0,0,0,0,4.2888,4.2899,4.288,4.2959,4.2978,4.2988,4.303,4.3007,4.3036,4.3029,4.3008,4.3012,4.3081,4.3087,4.3044,4.3165,4.3114,4.3124,4.3158,4.3174,4.3186,4.3183,4.2986,0,0,0,0,0,4.2912,4.2953,4.2959,4.3028,4.3039,4.3033,4.3055,4.3042,4.306,4.3068,4.3073,4.3091,4.3127,4.3151,4.3184,4.3267,4.3268,4.3305,4.3317,4.3328,4.3336,4.3379,4.3395,4.3224,4.3224,4.3224,0,0,4.2959,4.297,4.2998,4.3041,4.3054,4.3097,4.304,4.3088,4.3118,4.3074,4.3135,4.314,4.3159,4.3233,4.3265,4.324,4.3384,4.3337,4.3345,4.3348,4.3388,4.3404,4.3418,4.3229,4.3228,4.3228,0,0,4.3068,4.3082,4.314,4.3154,4.3175,4.3171,4.3185,4.3199,4.32,4.3262,4.3229,4.3265,4.3328,4.3342,4.3358,4.3472,4.3445,4.3484,4.3548,4.359,4.3603,4.3615,4.3654,4.3669,4.3492,4.3492,4.3493,0,4.3125,4.3188,4.3172,4.3222,4.3241,4.3205,4.3263,4.3277,4.3308,4.3322,4.3293,4.337,4.338,4.3456,4.3484,4.3498,4.3513,4.3481,4.3603,4.3614,4.3625,4.3662,4.3677,4.3497,4.3496,4.3496,4.3496,0,4.3256,4.3301,4.3345,4.3376,4.3401,4.3455,4.3446,4.3472,4.3457,4.3456,4.3517,4.3529,4.3563,4.358,4.3566,4.3654,4.3637,4.3606,4.3554,4.3646,4.3681,4.3695,4.3503,4.3502,4.35,4.3499,0,0,4.3405,4.3427,4.3443,4.3457,4.3477,4.3511,4.3562,4.3596,4.3619,4.3642,4.3683,4.3737,4.3708,4.3726,4.3713,4.375,4.3838,4.3714,4.3714,4.3735,4.3934,4.3956,4.3973,4.3821,4.3823,4.3825,4.3932,0,4.3513,4.3603,4.359,4.3676,4.3716,4.3682,4.3726,4.3743,4.3743,4.3777,4.3776,4.3814,4.3774,4.3784,4.3819,4.382,4.3877,4.3812,4.3858,4.386,4.3853,4.3992,4.4015,4.4115,4.3946,4.3948,4.395,0,4.365,4.3678,4.3769,4.3783,4.3799,4.3839,4.3869,4.3902,4.392,4.3917,4.3937,4.3917,4.3967,4.3916,4.3984,4.394,4.3958,4.3961,4.3964,4.3967,4.3909,4.3996,4.4147,4.4161,4.3971,4.3969,4.3968,0,4.3748,4.3808,4.387,4.3883,4.3901,4.393,4.3938,4.3954,4.3975,4.4001,4.4014,4.4045,4.4062,4.4086,4.4075,4.4039,4.4145,4.4092,4.4142,4.4143,4.4165,4.4164,4.4319,4.4179,4.4179,4.4179,4.4179,0,4.3868,4.3925,4.3914,4.3952,4.4013,4.3998,4.4059,4.4063,4.4077,4.4114,4.4087,4.4122,4.4105,4.4139,4.413,4.4187,4.4195,4.4193,4.419,4.4195,4.4195,4.4205,4.4198,4.4183,4.4182,4.4181,4.4181,0,4.3987,4.3983,4.4047,4.4059,4.4064,4.4109,4.4118,4.4153,4.4151,4.4198,4.4208,4.4205,4.4243,4.4235,4.4276,4.427,4.4342,4.433,4.4336,4.4332,4.4382,4.4377,4.4549,4.457,4.4418,4.442,4.4421,0,4.4064,4.4107,4.4123,4.4147,4.4158,4.4196,4.4218,4.4204,4.4227,4.4251,4.4283,4.4319,4.4346,4.4409,4.4409,4.4441,4.4429,4.4487,4.4434,4.4437,4.4428,4.4425,4.4429,4.4497,4.4499,4.4501,4.4502,0,4.42,4.4195,4.4228,4.4261,4.4288,4.4312,4.4333,4.4354,4.4342,4.4369,4.4408,4.443,4.4473,4.4508,4.4538,4.4545,4.4521,4.4519,4.4532,4.4536,4.4537,4.4536,4.4363,4.4515,4.4513,4.4512,4.4512,4.4511,4.4299,4.4335,4.4352,4.439,4.4405,4.4426,4.4459,4.4461,4.4494,4.4528,4.4518,4.4562,4.4578,4.4615,4.4626,4.466,4.4638,4.4657,4.4661,4.4666,4.4671,4.4533,4.4665,4.4665,4.4664,4.4664,4.4664,0,4.4432,4.4442,4.4477,4.4508,4.4537,4.4514,4.4536,4.4562,4.4601,4.4619,4.4647,4.4692,4.4726,4.473,4.4762,4.4788,4.4777,4.4796,4.4793,4.4795,4.469,4.4675,4.4804,4.4804,4.4804,4.4804,4.4804,4.4804,4.4505,4.4564,4.4562,4.4628,4.4637,4.4681,4.4695,4.4714,4.4728,4.4779,4.4808,4.481,4.4822,4.4855,4.4884,4.4884,4.4897,4.492,4.4916,4.4817,4.4803,4.4789,4.4775,4.4923,4.4923,4.5018,4.5019,4.5019]},{"header":{"parameterUnit":"m.s-1","parameterCategory":1,"la1":30.2991,"la2":30.254,"lo1":-89.0895,"lo2":-89.0444,"dy":0.0017,"dx":0.0017,"nx":28,"ny":28,"refTime":"2024-07-07T21:00:00:Z","depth":0,"parameterNumber":3,"parameterNumberName":"V-component_of_WINDS"},"data":[0,0,0,0,0,0,0,0,0,0,0,0,0,0,0,0,0,0,0,0,0,0,0,0,0,0,0,0,0,0,0,0,0,0,0,0,0,0,0,0,0,0,0,0,0,0,0,0,0,0,0,0,0,0,0,0,0,0,5.5225,5.5226,0,5.5279,5.528,5.528,5.528,5.5279,5.5278,5.5278,5.5327,5.5329,5.5331,0,0,0,0,0,0,0,0,0,0,0,0,0,5.5117,5.5119,5.5225,5.5226,5.5227,5.5279,5.528,5.528,5.528,5.5279,5.5278,5.5278,5.5327,5.5329,5.5331,0,0,0,0,0,0,0,0,0,0,0,0,0,5.5166,5.5119,5.5225,5.5233,5.5234,5.5279,5.528,5.5281,5.528,5.5279,5.5278,5.5277,5.5326,5.5329,5.5332,5.5371,0,0,5.5341,5.5342,0,0,0,0,0,0,0,0,5.5164,5.517,5.5231,5.5232,5.5234,5.5272,5.526,5.5311,5.528,5.5262,5.5278,5.5277,5.5309,5.5314,5.5326,5.5373,5.5375,5.5341,5.5343,5.5344,5.5345,0,0,0,0,0,0,0,5.516,5.5168,5.5246,5.5232,5.5234,5.5232,5.5238,5.5269,5.5291,5.5264,5.5264,5.5271,5.531,5.5323,5.5327,5.5376,5.5341,5.5344,5.5345,5.5347,5.5457,5.5458,0,0,0,0,0,0,5.5156,5.5165,5.5245,5.5248,5.5196,5.5235,5.5241,5.5261,5.5291,5.5294,5.5272,5.5271,5.5318,5.5324,5.5329,5.5376,5.5344,5.5347,5.5349,5.5456,5.5458,5.5459,0,0,0,0,0,0,5.5154,5.5163,5.5242,5.5207,5.5217,5.5238,5.5259,5.5262,5.5275,5.5296,5.53,5.5281,5.5318,5.5325,5.5361,5.5378,5.5348,5.5351,5.5455,5.5457,5.5458,5.5472,0,0,0,0,0,0,5.515,5.5162,5.5178,5.5207,5.5219,5.5275,5.526,5.5264,5.5281,5.528,5.5306,5.531,5.5318,5.5356,5.5364,5.5382,5.5353,5.5453,5.5456,5.5458,5.547,5.5474,5.5477,0,0,0,0,0,5.5147,5.5179,5.5179,5.5189,5.524,5.5276,5.5282,5.5292,5.5282,5.5298,5.5312,5.5309,5.5375,5.536,5.5368,5.5387,5.5452,5.5455,5.5457,5.5468,5.5473,5.5477,0,0,0,0,0,0,5.5149,5.5183,5.5184,5.5226,5.5249,5.5276,5.5296,5.5297,5.5321,5.5319,5.5329,5.5334,5.537,5.5382,5.5365,5.5426,5.5412,5.5417,5.5417,5.5422,5.5426,5.5422,5.5356,0,0,0,0,0,5.5156,5.5184,5.5211,5.5246,5.5257,5.5275,5.5291,5.5297,5.532,5.5328,5.5345,5.5365,5.5391,5.5407,5.5431,5.5472,5.5477,5.5489,5.5492,5.5495,5.5499,5.5521,5.5526,5.5468,5.5468,5.5467,0,0,5.5167,5.5189,5.5206,5.5247,5.5265,5.5293,5.5283,5.5312,5.5333,5.5332,5.5368,5.538,5.5404,5.5442,5.546,5.5453,5.5516,5.5499,5.5501,5.5503,5.5524,5.5529,5.5534,5.5469,5.5469,5.5469,0,0,5.5204,5.5223,5.5255,5.5274,5.5302,5.5313,5.5321,5.5348,5.5357,5.5393,5.5394,5.5417,5.5461,5.5478,5.5492,5.5535,5.5533,5.5542,5.5561,5.5582,5.5587,5.5591,5.5606,5.5612,5.5546,5.5546,5.5546,0,5.5214,5.5259,5.527,5.5301,5.5319,5.5322,5.5353,5.5369,5.5403,5.5414,5.5407,5.5462,5.5478,5.552,5.5531,5.5543,5.5551,5.5539,5.5586,5.559,5.5594,5.5608,5.5614,5.5547,5.5547,5.5547,5.5546,0,5.527,5.53,5.5322,5.5357,5.5377,5.5408,5.5423,5.5441,5.5445,5.5457,5.5493,5.5513,5.5542,5.5552,5.5555,5.5595,5.559,5.5584,5.557,5.56,5.5614,5.562,5.5548,5.5548,5.5548,5.5547,0,0,5.5309,5.5352,5.5359,5.5375,5.5406,5.5429,5.5459,5.5489,5.5505,5.5528,5.5552,5.559,5.5585,5.5601,5.5606,5.5625,5.5657,5.5616,5.5617,5.5623,5.5701,5.5706,5.5712,5.5656,5.5658,5.5658,5.5699,0,5.5349,5.5405,5.5417,5.5464,5.5492,5.5495,5.5521,5.5542,5.5554,5.5578,5.559,5.5617,5.5608,5.5618,5.5636,5.565,5.5673,5.5647,5.5678,5.5679,5.5673,5.5719,5.5724,5.5762,5.5705,5.5706,5.5706,0,5.5402,5.5429,5.548,5.5508,5.552,5.5544,5.5572,5.5595,5.5619,5.5626,5.5645,5.5648,5.5678,5.5663,5.5704,5.5685,5.5699,5.5707,5.5709,5.5712,5.5695,5.5724,5.5774,5.578,5.5715,5.5714,5.5714,0,5.5426,5.5474,5.5511,5.5525,5.5558,5.5575,5.5589,5.5612,5.5629,5.5653,5.5664,5.5691,5.5705,5.5725,5.5735,5.5723,5.5775,5.576,5.5781,5.5781,5.5791,5.5791,5.5845,5.58,5.58,5.58,5.58,0,5.5469,5.55,5.5522,5.5545,5.5579,5.5592,5.5625,5.5639,5.5659,5.5683,5.5687,5.5709,5.5721,5.5745,5.5753,5.5785,5.5791,5.5797,5.5799,5.5797,5.5796,5.5806,5.5803,5.5802,5.5801,5.5801,5.5801,0,5.5501,5.5517,5.5558,5.5587,5.5595,5.5619,5.5643,5.5664,5.5676,5.5707,5.5714,5.5733,5.5761,5.5773,5.5807,5.5812,5.5849,5.5849,5.5842,5.5843,5.5862,5.586,5.5924,5.5933,5.5883,5.5883,5.5884,0,5.5527,5.5551,5.5584,5.5601,5.5617,5.5644,5.5663,5.5675,5.5694,5.5723,5.574,5.5769,5.5793,5.5837,5.5852,5.5878,5.5878,5.5899,5.5882,5.5879,5.5878,5.5877,5.5879,5.5902,5.5902,5.5903,5.5903,0,5.5572,5.5579,5.5606,5.5637,5.5659,5.5682,5.5706,5.5719,5.5735,5.5756,5.5786,5.5804,5.584,5.5868,5.5895,5.5907,5.5908,5.5908,5.5914,5.5913,5.5908,5.5911,5.585,5.5907,5.5906,5.5906,5.5906,5.5906,5.5602,5.5624,5.565,5.568,5.5699,5.5721,5.5743,5.5759,5.5784,5.5816,5.5821,5.5853,5.5875,5.5912,5.5926,5.5949,5.5944,5.5953,5.5955,5.5957,5.5958,5.5904,5.5954,5.5954,5.5954,5.5954,5.5954,0,5.5647,5.5664,5.5692,5.5725,5.5749,5.5749,5.5775,5.5794,5.5822,5.5844,5.5868,5.5902,5.5929,5.5947,5.5974,5.599,5.5991,5.5997,5.5995,5.5998,5.5962,5.5954,5.5996,5.5996,5.5996,5.5996,5.5996,5.5996,5.5673,5.571,5.5721,5.5767,5.5783,5.5816,5.5831,5.5851,5.5868,5.5907,5.593,5.5942,5.5962,5.5991,5.6016,5.602,5.603,5.6036,5.604,5.6005,5.6001,5.5997,5.599,5.6038,5.6038,5.6075,5.6075,5.6076]}]]